BEIDOU-3 M4 (C28)

Last updated on Dec. 12, 2019, 4:25 a.m. UTC

1 43108U 18003B   19345.50462819 -.00000062  00000-0  00000+0 0  9993
2 43108  55.3086  24.0550 0004947 238.9186 110.7771  1.86232734 13039
UTC
Height (km)
Latitude
Longitude
Inclination
Orbital Period
UTC large
Height (km)
Speed (km/s)
/
Latitude / Longitude
Inclination (degrees)
Orbital Period (minutes)
Azimuth
Elevation
Range (km)
Doppler Factor
iOS Compass Heading
iOS Angle

Next 30 passes for location: Hong Kong

Rise time Rise Azimuth (degrees) Set time Set Azimuth (degrees) Duration Max altitude (degrees)

No matching passes for this satellites